[[{"header":{"parameterUnit":"m.s-1","parameterCategory":1,"la1":30.2991,"la2":30.254,"lo1":-89.0895,"lo2":-89.0444,"dy":0.0017,"dx":0.0017,"nx":28,"ny":28,"refTime":"2024-09-29T09:00:00:Z","depth":0,"parameterNumber":2,"parameterNumberName":"U-component_of_WINDS"},"data":[0,0,0,0,0,0,0,0,0,0,0,0,0,0,0,0,0,0,0,0,0,0,0,0,0,0,0,0,0,0,0,0,0,0,0,0,0,0,0,0,0,0,0,0,0,0,0,0,0,0,0,0,0,0,0,0,0,0,1.8201,1.8202,0,1.8333,1.8334,1.8336,1.8343,1.8341,1.834,1.8338,1.8472,1.8477,1.8482,0,0,0,0,0,0,0,0,0,0,0,0,0,1.7952,1.7957,1.8201,1.8202,1.8204,1.8332,1.8334,1.8336,1.8343,1.8341,1.8339,1.8337,1.847,1.8476,1.8482,0,0,0,0,0,0,0,0,0,0,0,0,0,1.807,1.7958,1.82,1.8223,1.8226,1.8332,1.8334,1.8337,1.8343,1.8341,1.8339,1.8337,1.8469,1.8476,1.8483,1.8575,0,0,1.8506,1.8509,0,0,0,0,0,0,0,0,1.8063,1.8079,1.8218,1.8221,1.8225,1.8319,1.8296,1.8417,1.8344,1.8299,1.8338,1.8335,1.8423,1.8434,1.8464,1.8581,1.8587,1.8507,1.8511,1.8514,1.8517,0,0,0,0,0,0,0,1.8055,1.8073,1.8253,1.822,1.8224,1.8226,1.824,1.8319,1.8372,1.8303,1.8303,1.8319,1.8424,1.8457,1.8467,1.8589,1.8507,1.8513,1.8518,1.8521,1.8787,1.879,0,0,0,0,0,0,1.8043,1.8066,1.8249,1.8257,1.8137,1.8232,1.8248,1.8291,1.8371,1.8381,1.8321,1.8319,1.8445,1.8458,1.8472,1.8583,1.8514,1.8521,1.8526,1.8785,1.8788,1.8791,0,0,0,0,0,0,1.8037,1.8059,1.8243,1.8162,1.8185,1.8239,1.8287,1.8295,1.8327,1.8385,1.8394,1.8344,1.8444,1.8461,1.8549,1.8588,1.8525,1.8532,1.8782,1.8786,1.8789,1.8808,0,0,0,0,0,0,1.803,1.8057,1.8093,1.8163,1.819,1.8319,1.829,1.8299,1.834,1.8339,1.8409,1.8419,1.8443,1.8538,1.8557,1.8597,1.8537,1.8778,1.8783,1.8788,1.8805,1.8812,1.8819,0,0,0,0,0,1.8021,1.8093,1.8095,1.8117,1.8236,1.8321,1.8337,1.8364,1.8343,1.8379,1.8416,1.8416,1.8581,1.8547,1.8568,1.8612,1.8776,1.8782,1.8788,1.8801,1.8811,1.8819,0,0,0,0,0,0,1.8026,1.8103,1.8105,1.8202,1.8255,1.8322,1.8369,1.8374,1.8434,1.843,1.8461,1.8476,1.8563,1.8596,1.8557,1.8704,1.8676,1.8686,1.8679,1.8689,1.8696,1.8686,1.8544,0,0,0,0,0,1.8039,1.8103,1.8166,1.8245,1.8271,1.8316,1.8354,1.837,1.8426,1.8449,1.8492,1.8546,1.861,1.8651,1.8714,1.881,1.8824,1.885,1.8857,1.8863,1.8871,1.8923,1.8935,1.881,1.881,1.881,0,0,1.8065,1.8115,1.8153,1.8247,1.829,1.8354,1.8334,1.8404,1.8451,1.8459,1.8544,1.8578,1.8641,1.8732,1.8775,1.8763,1.8909,1.887,1.8875,1.888,1.893,1.8942,1.8952,1.8814,1.8813,1.8812,0,0,1.8146,1.819,1.826,1.8304,1.8369,1.8398,1.8415,1.8482,1.8504,1.8591,1.8597,1.8654,1.8764,1.8808,1.8844,1.894,1.8942,1.8959,1.8998,1.9048,1.9057,1.9066,1.9099,1.9111,1.8968,1.8968,1.8968,0,1.817,1.8268,1.8296,1.8365,1.8405,1.8415,1.8486,1.8527,1.8609,1.8636,1.8621,1.8758,1.8801,1.8903,1.8926,1.8956,1.8975,1.8951,1.9054,1.9063,1.9072,1.9103,1.9116,1.8969,1.8969,1.8969,1.8969,0,1.8293,1.8361,1.841,1.8489,1.8535,1.8605,1.8642,1.8686,1.8698,1.8728,1.8814,1.8866,1.8938,1.8964,1.8976,1.9067,1.9057,1.9048,1.902,1.9085,1.9115,1.9127,1.8972,1.8971,1.8971,1.897,0,0,1.8381,1.8474,1.8492,1.8527,1.86,1.8652,1.8721,1.8792,1.8828,1.8884,1.8942,1.9034,1.9026,1.9067,1.9085,1.9129,1.92,1.9114,1.9116,1.9127,1.9301,1.9306,1.932,1.9201,1.9204,1.9206,1.9295,0,1.8468,1.8593,1.862,1.8726,1.8788,1.8798,1.8858,1.8909,1.8939,1.8995,1.9028,1.9092,1.9077,1.9101,1.9146,1.9182,1.9235,1.9176,1.9254,1.9257,1.9237,1.9336,1.9343,1.9424,1.9307,1.9309,1.9311,0,1.8587,1.8646,1.8759,1.8822,1.8849,1.8903,1.8969,1.9023,1.908,1.9099,1.9144,1.9157,1.9228,1.9198,1.9296,1.9255,1.9289,1.9311,1.9315,1.9322,1.9287,1.9345,1.9451,1.9463,1.933,1.9328,1.9327,0,1.8638,1.8746,1.8827,1.8857,1.8933,1.8971,1.9004,1.9059,1.9099,1.9157,1.9183,1.9248,1.9283,1.9333,1.9362,1.9337,1.9457,1.943,1.9473,1.9473,1.9498,1.9496,1.9609,1.9521,1.9521,1.9521,1.9521,0,1.8733,1.8801,1.8851,1.89,1.8977,1.9007,1.9081,1.9114,1.9163,1.9218,1.9231,1.9283,1.9319,1.9375,1.9399,1.9475,1.9491,1.9507,1.9512,1.9506,1.9503,1.9527,1.9522,1.9524,1.9523,1.9523,1.9522,0,1.8802,1.8838,1.8927,1.8992,1.901,1.9063,1.9118,1.9166,1.9196,1.9266,1.9284,1.933,1.9397,1.9431,1.9515,1.9531,1.9616,1.9619,1.9597,1.9599,1.9641,1.9636,1.9773,1.9792,1.9692,1.9693,1.9694,0,1.886,1.8912,1.8983,1.9021,1.9055,1.9117,1.9158,1.9189,1.9231,1.9299,1.9338,1.9406,1.9462,1.9568,1.9609,1.9672,1.9675,1.9719,1.9685,1.9676,1.9674,1.967,1.9675,1.9725,1.9726,1.9727,1.9727,0,1.8957,1.8972,1.9031,1.9096,1.9145,1.9198,1.925,1.928,1.9319,1.9365,1.9434,1.9477,1.9562,1.9629,1.9695,1.9728,1.9734,1.9738,1.9751,1.9744,1.9729,1.9736,1.9612,1.9734,1.9734,1.9733,1.9733,1.9732,1.9022,1.9069,1.9125,1.919,1.9232,1.928,1.9328,1.9363,1.9421,1.9493,1.9508,1.958,1.9634,1.9724,1.9759,1.9816,1.9806,1.9826,1.9831,1.9835,1.9836,1.9721,1.9828,1.9828,1.9828,1.9827,1.9827,0,1.9119,1.9155,1.9215,1.9287,1.9338,1.9339,1.9396,1.9438,1.9502,1.9552,1.9606,1.9684,1.9749,1.9794,1.9859,1.9895,1.9899,1.9911,1.9908,1.9915,1.9841,1.9823,1.9907,1.9907,1.9907,1.9907,1.9907,1.9907,1.9175,1.9254,1.9276,1.9375,1.9411,1.9482,1.9514,1.9558,1.9598,1.9685,1.9738,1.9768,1.9816,1.9884,1.9943,1.9954,1.9977,1.9988,2.0,1.9929,1.9921,1.9913,1.9895,1.9994,1.9994,2.0069,2.007,2.0071]},{"header":{"parameterUnit":"m.s-1","parameterCategory":1,"la1":30.2991,"la2":30.254,"lo1":-89.0895,"lo2":-89.0444,"dy":0.0017,"dx":0.0017,"nx":28,"ny":28,"refTime":"2024-09-29T09:00:00:Z","depth":0,"parameterNumber":3,"parameterNumberName":"V-component_of_WINDS"},"data":[0,0,0,0,0,0,0,0,0,0,0,0,0,0,0,0,0,0,0,0,0,0,0,0,0,0,0,0,0,0,0,0,0,0,0,0,0,0,0,0,0,0,0,0,0,0,0,0,0,0,0,0,0,0,0,0,0,0,2.8677,2.8677,0,2.8724,2.8725,2.8726,2.8678,2.8676,2.8674,2.8672,2.8718,2.872,2.8723,0,0,0,0,0,0,0,0,0,0,0,0,0,2.854,2.8542,2.8677,2.8677,2.8678,2.8724,2.8725,2.8726,2.8678,2.8676,2.8673,2.8671,2.8717,2.872,2.8724,0,0,0,0,0,0,0,0,0,0,0,0,0,2.8594,2.8543,2.8677,2.866,2.8659,2.8724,2.8725,2.8726,2.8678,2.8676,2.8673,2.867,2.8715,2.872,2.8724,2.8808,0,0,2.8738,2.874,0,0,0,0,0,0,0,0,2.8591,2.8599,2.8662,2.8661,2.866,2.8692,2.8693,2.8753,2.8679,2.8671,2.8672,2.8669,2.8711,2.8716,2.8731,2.881,2.8812,2.8738,2.8741,2.8743,2.8744,0,0,0,0,0,0,0,2.8588,2.8597,2.8695,2.8663,2.8662,2.8648,2.8653,2.8704,2.8706,2.8671,2.8668,2.8674,2.871,2.8727,2.8732,2.8812,2.8738,2.8742,2.8745,2.8746,2.896,2.8963,0,0,0,0,0,0,2.8586,2.8594,2.8694,2.8697,2.8618,2.8653,2.8658,2.8685,2.8705,2.8706,2.8677,2.8672,2.872,2.8726,2.8733,2.8831,2.8743,2.8747,2.8749,2.8957,2.8961,2.8964,0,0,0,0,0,0,2.8583,2.8596,2.8692,2.8645,2.8656,2.8658,2.8688,2.8687,2.8704,2.871,2.8709,2.8694,2.8718,2.8727,2.8789,2.8832,2.8749,2.8753,2.8954,2.8958,2.8962,2.9028,0,0,0,0,0,0,2.858,2.8595,2.8628,2.8646,2.8659,2.8749,2.8691,2.869,2.8712,2.8706,2.8725,2.8726,2.8717,2.8783,2.8794,2.8836,2.8756,2.895,2.8956,2.8961,2.9022,2.9034,2.9045,0,0,0,0,0,2.8575,2.8644,2.863,2.8642,2.87,2.8752,2.8759,2.8748,2.8715,2.8748,2.8751,2.8725,2.8826,2.879,2.8801,2.8846,2.8947,2.8954,2.8961,2.9017,2.9032,2.9045,0,0,0,0,0,0,2.863,2.8646,2.8631,2.8708,2.8729,2.8744,2.8784,2.8765,2.8795,2.8788,2.8772,2.8777,2.8843,2.8851,2.8811,2.8927,2.8881,2.889,2.892,2.8934,2.8945,2.8941,2.876,0,0,0,0,0,2.8652,2.8694,2.8705,2.8772,2.8783,2.8782,2.8804,2.8794,2.8815,2.8823,2.8831,2.8851,2.8887,2.8911,2.8944,2.9023,2.9026,2.9059,2.9071,2.908,2.9088,2.9129,2.9144,2.8986,2.8986,2.8986,0,0,2.8696,2.871,2.8737,2.8783,2.8798,2.884,2.879,2.8837,2.8867,2.883,2.8889,2.8896,2.8917,2.8988,2.9019,2.8996,2.9132,2.9089,2.9096,2.9099,2.9137,2.9152,2.9165,2.8991,2.899,2.8989,0,0,2.8798,2.8813,2.887,2.8886,2.891,2.8909,2.8922,2.894,2.8943,2.9003,2.8975,2.901,2.9073,2.9088,2.9105,2.9211,2.9188,2.9222,2.9281,2.9321,2.9333,2.9344,2.9381,2.9395,2.923,2.9231,2.9231,0,2.885,2.8914,2.8902,2.8951,2.8971,2.8939,2.8996,2.9012,2.9045,2.9059,2.9032,2.9109,2.9121,2.9195,2.9221,2.9235,2.9249,2.922,2.9333,2.9344,2.9354,2.9388,2.9402,2.9235,2.9234,2.9234,2.9233,0,2.8975,2.902,2.9062,2.9096,2.9121,2.9173,2.9168,2.9194,2.9182,2.9182,2.9242,2.9256,2.9291,2.9307,2.9295,2.9378,2.9363,2.9336,2.9288,2.9373,2.9405,2.9419,2.924,2.9239,2.9238,2.9237,0,0,2.9114,2.914,2.9156,2.917,2.9193,2.9226,2.9276,2.9311,2.9333,2.9357,2.9397,2.945,2.9424,2.9443,2.9432,2.9467,2.9549,2.9434,2.9435,2.9454,2.9639,2.966,2.9676,2.9533,2.9536,2.9538,2.9637,0,2.9216,2.9305,2.9295,2.9378,2.9418,2.9388,2.9431,2.9449,2.9451,2.9483,2.9484,2.9522,2.9485,2.9496,2.953,2.9532,2.9586,2.9525,2.957,2.9571,2.9565,2.9693,2.9715,2.9808,2.965,2.9652,2.9654,0,2.9347,2.9376,2.9464,2.9479,2.9496,2.9535,2.9565,2.9597,2.9616,2.9615,2.9635,2.9618,2.9666,2.9618,2.9684,2.9643,2.966,2.9664,2.9667,2.967,2.9617,2.9699,2.9838,2.9851,2.9674,2.9672,2.9671,0,2.9439,2.9499,2.9559,2.9572,2.9592,2.962,2.9629,2.9646,2.9667,2.9693,2.9706,2.9737,2.9754,2.9777,2.9768,2.9735,2.9835,2.9787,2.9834,2.9834,2.9856,2.9855,2.9999,2.9869,2.9869,2.9869,2.9868,0,2.9553,2.9608,2.96,2.9637,2.9696,2.9683,2.9742,2.9748,2.9762,2.9798,2.9774,2.9808,2.9794,2.9827,2.982,2.9874,2.9882,2.9881,2.9878,2.9883,2.9883,2.9894,2.9887,2.9872,2.9871,2.9871,2.987,0,2.9666,2.9663,2.9726,2.9739,2.9744,2.9787,2.9798,2.9831,2.9831,2.9877,2.9886,2.9885,2.9922,2.9916,2.9956,2.9952,3.0019,3.0009,3.0013,3.0011,3.0058,3.0053,3.0214,3.0233,3.0091,3.0093,3.0094,0,2.9739,2.978,2.9798,2.9821,2.9832,2.987,2.9891,2.9879,2.9902,2.9926,2.9956,2.9991,3.0019,3.0079,3.0081,3.0111,3.0101,3.0155,3.0105,3.0108,3.0101,3.0098,3.0101,3.0165,3.0166,3.0168,3.0169,0,2.9869,2.9865,2.9897,2.9929,2.9955,2.9979,3.0001,3.002,3.001,3.0037,3.0075,3.0096,3.0137,3.0172,3.02,3.0208,3.0187,3.0185,3.0197,3.0202,3.0202,3.0201,3.0039,3.0181,3.018,3.0179,3.0178,3.0178,2.9963,2.9998,3.0015,3.0052,3.0067,3.0087,3.0119,3.0122,3.0154,3.0187,3.0178,3.0221,3.0236,3.0272,3.0283,3.0316,3.0295,3.0313,3.0318,3.0322,3.0328,3.0197,3.0321,3.032,3.032,3.032,3.032,0,3.0091,3.01,3.0134,3.0165,3.0193,3.0171,3.0193,3.0217,3.0256,3.0273,3.03,3.0343,3.0376,3.038,3.0411,3.0435,3.0426,3.0444,3.0441,3.0443,3.0345,3.033,3.0451,3.0451,3.0451,3.0451,3.0451,3.0451,3.016,3.0218,3.0216,3.0279,3.0288,3.033,3.0344,3.0362,3.0376,3.0425,3.0452,3.0455,3.0466,3.0497,3.0526,3.0526,3.0538,3.056,3.0556,3.0464,3.045,3.0438,3.0425,3.0563,3.0563,3.0652,3.0653,3.0653]}]]